PILOTS ONLINE: 662    ATC ONLINE: 99

KSMO

Santa Monica Municipal Airport

Location

City Santa Monica
Country  United States
Latitude 34° 0' 56" N
Longitude 118° 27' 3" W
Elevation 177 ft
Type Small Airport

Map

Weather

METAR
2014/09/20 15:51
KSMO 201551Z 07004KT 10SM OVC020 22/16 A2995 RMK AO2 SLP139 T02170161
TAF
No TAF available

Runways

03/21 4973 ft / 150 ft

Outbound flights

Callsign Flying to Pilot ATD/STD ETA Aircraft

Inbound flights

Callsign Flying from Pilot ATD ETA Aircraft